This is the latest recevied weather packets stored in our database for station/object KC1BRV. If no packets are shown the sender has not sent any weather packets the latest 10 day(s).
| Time | Temp. | Humidity | Pressure | Rain* | Wind** | Luminosity | Snow |
|---|---|---|---|---|---|---|---|
| 1777939873 | 13.33° C | 65% | 1011.3 hPa | 0 mm | - | 0 W/m² | - |
| 1777939570 | 13.33° C | 64% | 1011.3 hPa | 0 mm | - | 0 W/m² | - |
| 1777939267 | 13.33° C | 63% | 1011.4 hPa | 0 mm | - | 0 W/m² | - |
| 1777938963 | 13.33° C | 63% | 1011.1 hPa | 0 mm | - | 1 W/m² | - |
| 1777938660 | 13.89° C | 62% | 1011.2 hPa | 0 mm | - | 1 W/m² | - |
| 1777938357 | 13.89° C | 61% | 1011 hPa | 0 mm | - | 2 W/m² | - |
| 1777938054 | 13.89° C | 59% | 1011.1 hPa | 0 mm | - | 3 W/m² | - |
| 1777937749 | 13.89° C | 58% | 1011 hPa | 0 mm | - | 5 W/m² | - |
| 1777937447 | 14.44° C | 57% | 1011.1 hPa | 0 mm | - | 7 W/m² | - |
| 1777937144 | 14.44° C | 56% | 1011 hPa | 0 mm | - | 9 W/m² | - |
| 1777936841 | 15° C | 55% | 1010.9 hPa | 0 mm | - | 11 W/m² | - |
| 1777936538 | 15° C | 54% | 1010.8 hPa | 0 mm | - | 14 W/m² | - |
| 1777936233 | 15.56° C | 53% | 1010.7 hPa | 0 mm | - | 17 W/m² | - |
| 1777935930 | 15.56° C | 51% | 1010.8 hPa | 0 mm | - | 20 W/m² | - |
| 1777935629 | 15.56° C | 51% | 1010.8 hPa | 0 mm | - | 26 W/m² | - |
| 1777935326 | 15.56° C | 50% | 1010.8 hPa | 0 mm | - | 35 W/m² | - |
| 1777935023 | 16.11° C | 50% | 1010.9 hPa | 0 mm | - | 40 W/m² | - |
| 1777934719 | 16.11° C | 49% | 1010.9 hPa | 0 mm | - | 35 W/m² | - |
| 1777934417 | 16.11° C | 48% | 1010.7 hPa | 0 mm | - | 30 W/m² | - |
| 1777934113 | 16.67° C | 47% | 1010.7 hPa | 0 mm | - | 27 W/m² | - |
| 1777933809 | 16.67° C | 46% | 1010.5 hPa | 0 mm | - | 29 W/m² | - |
| 1777933507 | 16.67° C | 45% | 1010.3 hPa | 0 mm | - | 26 W/m² | - |
| 1777933204 | 16.67° C | 45% | 1010.3 hPa | 0 mm | - | 32 W/m² | - |
| 1777932901 | 17.22° C | 44% | 1010.4 hPa | 0 mm | - | 32 W/m² | - |
| 1777932598 | 17.22° C | 44% | 1010.5 hPa | 0 mm | - | 46 W/m² | - |
* Rain latest hour (hover to see other rain measurements)
** Current wind speed in m/s (hover to see current wind gust speed)